H21 Astronomical Research Observatory, Westfield.  Observer R. Holmes.
    Measurers T. Linder, R. Holmes, L. Horn.  0.81-m f/4.0 astrograph + CCD,
    0.76-m f/3.0 astrograph + CCD.
I52 Steward Observatory, Mt. Lemmon Station.  Observer T. Beuden.  Measurers
    T. Beuden, V. F. Carvajal, D. Fay, J. B. Fazekas, D. C. Fuls, A. R. Gibbs,
    A. D. Grauer, H. Groeller, J. K. Hogan, R. A. Kowalski, S. M. Larson, G.
    J. Leonard, D. Rankin, R. L. Seaman, F. C. Shelly, K. W. Wierzchos.  1.0-m
    prime focus + CCD.
I93 St Pardon de Conques.  Observer F. Losse.  0.40-m f/3.7 reflector + CMO.
L06 Sormano 2 Observatory, Bellagio Via Lattea.  Observer G. Ventre.  0.36m
    Schmidt Cassegrain + CCD.
L27 29PREMOTE Observatory, Dauban.  Observer J.-F. Soulier.  0.25-m f/3.5
    Newtonian reflector + CCD.
M45 Starhopper Observatory, Sfantu Gheorghe.  Observer F. Ursache.  0.41-m
    f/7.5 reflector + CMO.
P13 Baihuashan Observatory, Beijing.  Observers Z. Wang, B. Liu.  Measurer Z.
    Wang.  0.28-m f/2.2 reflector + CMO.
U94 iTelescope Observatory, Beryl Junction.  Observer H. Sato.  0.43-m f/6.8
    astrograph + CCD + f/4.5 focal reducer.
Y66 Two-Meter Twin Telescope, TTT2, Teide.  Observer M. R. Alarcon.
    Measurer M. Serra-Ricart.  0.80-m f/4.38 reflector + CMO.
Orbital elements:
    C/2024 J4 (Lemmon)                                                          
Epoch 2024 Mar. 31.0 TT = JDT 2460400.5                                         
T 2025 Apr. 27.73030 TT                                 Rudenko                 
q   5.6884803            (2000.0)            P               Q                  
z  +0.0010205      Peri.  128.04847     -0.46100729     -0.83741116             
 +/-0.0003426      Node    19.33753     -0.78017725     +0.22481167             
e   0.9941949      Incl.  117.53540     +0.42284244     -0.49819902             
>From 93 observations 2024 May 11-28, mean residual 0".3.                        
                                                                                
Ephemeris:
Date    TT    R. A. (2000) Decl.     Delta      r    Elong.  Phase   m1    m2
2024 04 30    19 13 53.1 +43 27 01   6.1147  6.2492    93.0     9.3  19.9
...
2024 05 15    18 59 59.9 +45 12 21   5.9524  6.2063    99.9     9.2  19.8
...
2024 05 23    18 50 47.5 +45 58 14   5.8768  6.1840   103.0     9.2  19.8
...
2024 05 29    18 43 08.4 +46 26 10   5.8264  6.1676   105.0     9.1  19.7
2024 05 30    18 41 48.4 +46 30 13   5.8186  6.1648   105.3     9.1  19.7
2024 05 31    18 40 27.6 +46 34 04   5.8109  6.1621   105.6     9.1  19.7
...
2024 06 06    18 32 04.7 +46 53 05   5.7686  6.1460   107.2     9.1  19.7
...
2024 06 14    18 20 16.3 +47 06 29   5.7228  6.1249   108.7     9.0  19.7
...
2024 06 29    17 57 16.7 +46 51 18   5.6716  6.0864   109.5     9.1  19.6
M. P. C. Staff               (C) Copyright 2024 MPC           M.P.E.C. 2024-K128
    
    
More information about the Iaude
mailing list